Regional Weather Roundup
Issued by NWS Jackson, KY

Home | Current Version | Previous Version | Text Only | Print | Product List | Glossary Off
Versions: 1 2 3 4 5 6 7 8 9 10 11 12 13 14 15 16 17 18 19 20 21 22 23 24 25 26 27 28

000
ASUS43 KJKL 240410
RWRJKL

EAST KENTUCKY HOURLY WEATHER ROUNDUP
NATIONAL WEATHER SERVICE JACKSON KY
1200 AM EDT FRI MAR 24 2017

NOTE: "FAIR" INDICATES FEW OR NO CLOUDS BELOW 12,000 FEET WITH
NO SIGNIFICANT WEATHER AND/OR OBSTRUCTIONS TO VISIBILITY.

* THESE REPORTS ARE NOT UNDER NWS QUALITY CONTROL AND MAY NOT
  REPORT WEATHER SUCH AS PRECIPITATION AND FOG.

KYZ079-080-083-085-087-088-110-112-115-119-120-240500
...EASTERN KENTUCKY...

CITY           SKY/WX    TMP DP  RH WIND       PRES   REMARKS
JACKSON        CLOUDY    58  32  37 S6        30.27F
LONDON         PTCLDY    57  36  45 S6        30.28F
SOMERSET*      CLEAR     57  36  44 S6        30.29S
MONTICELLO*    CLEAR     58  39  49 VRB7      30.28F
WILLIAMSBURG*  CLEAR     54  37  54 SE3       30.29F
MIDDLESBORO*   CLEAR     57  38  49 CALM      30.32F
HARLAN APT*    MOCLDY    55  28  35 CALM      30.31F
PIKE CO APT*     N/A     58  31  36 S7        30.28S
BIG SANDY APT* CLEAR     59  31  35 S6        30.28R
MOREHEAD APT*  CLOUDY    57  27  30 CALM      30.28R
ASHLAND*       CLOUDY    45  32  61 CALM      30.24S
$$

KYZ035-036-041-042-044-050-067-078-099-240500
...CENTRAL KENTUCKY...

CITY           SKY/WX    TMP DP  RH WIND       PRES   REMARKS
MT STERLING*   PTCLDY    55  36  47 SW6       30.26R
FLEMING/MASON* CLOUDY    55  32  42 S6        30.25S
DANVILLE*      PTCLDY    55  37  50 S7        30.25F
LEXINGTON      CLEAR     55  35  47 S10       30.23S
FRANKFORT      CLEAR     53  34  48 S5        30.21S
LOUISVILLE     PTCLDY    56  35  45 SE5       30.19F
LEBANON*         N/A     57  39  51 S10       30.23S
GLASGOW*       CLEAR     56  41  56 S7        30.23R
BOWLING GREEN  CLEAR     55  43  63 SE6       30.21S
$$

KYZ091>093-OHZ055-061-077-WVZ005-015-034-035-042-240500
...SOUTHERN OHIO/WEST VIRGINIA...

CITY           SKY/WX    TMP DP  RH WIND       PRES   REMARKS
COVINGTON      MOCLDY    51  34  52 S9        30.20F
COLUMBUS       MOCLDY    51  20  29 SE7       30.22F
DAYTON         CLOUDY    51  29  42 S10       30.19F
WILMINGTON     CLOUDY    49  34  56 S7        30.20F
HUNTINGTON     CLEAR     50  29  44 CALM      30.25S
CHARLESTON     PTCLDY    53  24  32 S6        30.27S
PINEVILLE*     CLEAR     41  27  57 MISG      30.38S
BECKLEY        CLEAR     44  20  38 SE13      30.33F
BLUEFIELD      CLEAR     43  20  39 S10G18    30.35F
LOGAN CO APT*    N/A     54  25  32 S9        30.28S
$$

VAZ002-007-008-TNZ017-027-036-066-071-240500
...SOUTHWEST VIRGINIA/EAST TENNESSEE...

CITY           SKY/WX    TMP DP  RH WIND       PRES   REMARKS
WISE*          CLEAR     50  23  34 S10G22    30.33F
JONESVILLE*    MOCLDY    54  30  40 CALM      30.36S
ABINGDON*      CLEAR     48  26  41 E6        30.37S
BRISTOL        MOCLDY    52  26  36 S7        30.37S
MORRISTOWN*    MOCLDY    54  30  40 NW7       30.33S
SEVIERVILLE*   CLEAR     48  41  76 CALM      30.34S
KNOXVILLE      PTCLDY    54  39  57 SW9       30.34R
LAFOLLETTE*    CLEAR     59  37  44 S12G21    30.35S
OAK RIDGE      CLEAR     58  35  42 VRB6      30.36S
CROSSVILLE     CLEAR     53  35  50 S10G20    30.33R
NASHVILLE      CLEAR     63  42  46 S14       30.22F
$$

...KEY TO REMARKS...
VSB - VISIBILITY IN MILES
WCI - WIND CHILL INDEX
HX  - HEAT INDEX

$$




USA.gov is the U.S. government's official web portal to all federal, state and local government web resources and services.